Regional Weather Roundup
Issued by NWS

Home | Current Version | Previous Version | Text Only | Print | Product List | Glossary Off
Versions: 1 2 3 4 5 6 7 8 9 10 11 12 13 14 15 16 17 18 19 20 21 22 23 24 25 26 27

000
ASUS45 KTFX 180110
RWRMT
MONTANA REGIONAL WEATHER ROUNDUP
NATIONAL WEATHER SERVICE GREAT FALLS MT
600 PM MST WED JAN 17 2018

NOTE: "FAIR" INDICATES FEW OR NO CLOUDS BELOW 12000 FEET WITH NO
SIGNIFICANT WEATHER AND/OR OBSTRUCTIONS TO VISIBILITY.

MTZ001>007-043-180200-
WEST OF THE DIVIDE

CITY           SKY/WX    TMP DP  RH WIND       PRES   REMARKS
KALISPELL      CLOUDY    29  28  96 CALM      30.13F
MISSOULA       CLOUDY    31  25  78 NE3       30.15S
BUTTE          FAIR      23  16  74 CALM      30.17S
MULLAN PASS    CLOUDY    29  28  96 SE5       30.05F
ANACONDA         N/A     37  18  44 SE8       30.12S WCI  31
DEER LODGE       N/A     36  19  51 CALM      30.14S
EUREKA           N/A     30  27  86 MISG      30.10F
HAMILTON         N/A     36  27  69 NW5       30.13S
PLAINS           N/A     31  27  85 CALM      30.12F
RONAN            N/A     27  27 100 CALM      30.15S
$$

MTZ008-052>055-180200-
SOUTHWEST MONTANA

CITY           SKY/WX    TMP DP  RH WIND       PRES   REMARKS
BOZEMAN        FAIR      26  18  71 SE5       30.16F
DILLON         FAIR      31  22  69 SW15      30.17F WCI  20
ENNIS          MOCLDY    36  25  64 S23G36    30.23F WCI  24
W YELLOWSTONE  CLOUDY    27  23  86 SW7       30.32F WCI  19
THREE FORKS      N/A     27  20  75 CALM      30.13F
TWIN BRIDGES     N/A     35  20  55 CALM      30.14F
$$

MTZ009-010-012-014-046-048-049-054-180200-
EAST SLOPES AND CENTRAL MONTANA

CITY           SKY/WX    TMP DP  RH WIND       PRES   REMARKS
CUT BANK       FAIR      43  25  49 SW20G25   29.93F
GREAT FALLS    FAIR      40  23  50 SW17G29   29.99S
MALMSTROM AFB  MOCLDY    39  27  62 SW16      29.98F WCI  30
HELENA         FAIR      24  19  81 NW8       30.14F WCI  15
AUGUSTA        FAIR      36  23  60 S16       29.97F WCI  26
BOWMANS CRNR   FAIR      34  22  60 S23       30.00F WCI  22
CHOTEAU          N/A     43  21  42 S14G22    29.97F
FAIRFIELD      MOCLDY    39  22  49 S23       29.96F WCI  29
POWER          MOCLDY    39  24  54 SW22      29.95F WCI  28
ULM            MOCLDY    39  26  59 SW14      30.02F WCI  31
WHITE SULPHUR    N/A     34  23  64 SE12      30.11F WCI  25
$$

MTZ011-013-016-021-045-047-050-051-180200-
NORTH CENTRAL MONTANA

CITY           SKY/WX    TMP DP  RH WIND       PRES   REMARKS
HAVRE          FAIR      25  19  78 SW13      29.95F WCI  14
LEWISTOWN      FAIR      38  21  50 SW18      30.02F WCI  28
N BAR RANCH    FAIR      41  10  28 SW12      30.05F
CHINOOK          N/A     23  19  86 E6        29.96F WCI  16
DENTON         FAIR      37  24  58 MISG      29.96F
GRASS RANGE    FAIR      41  18  39 W14       29.96
STANFORD       FAIR      39  20  47 CALM      30.00F
WINIFRED       FAIR      42  22  45 SW22      29.97F
$$

MTZ017>020-022>027-061-062-180200-
NORTHEAST MONTANA

CITY           SKY/WX    TMP DP  RH WIND       PRES   REMARKS
GLASGOW        FAIR      23  16  74 SE5       29.99F
GLENDIVE       FAIR      27  18  69 SW5       30.06R
JORDAN           N/A     32  22  66 W5        30.00F
MALTA          CLEAR     12  10  92 CALM      29.99F
SIDNEY         FAIR      23  17  78 S7        30.03S WCI  15
WOLF POINT     FAIR      13   7  77 SW5       30.01F
PLENTYWOOD       N/A     27  19  74 CALM      29.96F
POPLAR           N/A     18  12  79 S3        30.01F
SCOBEY           N/A     25  14  62 S9        29.95F WCI  16
$$

MTZ028>42-056>058-180200-
SOUTHCENTRAL AND SOUTHEAST MONTANA

CITY           SKY/WX    TMP DP  RH WIND       PRES   REMARKS
BAKER          FAIR      32  22  66 SW18      30.05F WCI  20
BILLINGS       MOCLDY    37  20  50 SW22      30.09F WCI  26
LIVINGSTON     FAIR      43  26  51 W22G41    30.10F
MILES CITY     FAIR      20  13  74 CALM      30.09S
BIG TIMBER     CLEAR     41  25  52 W18       30.11F
EKALAKA          N/A     38  20  48 S5        30.04F
FORSYTH          N/A     27  16  63 E5        30.08F
HARLOWTON        N/A    N/A N/A N/A MISG        N/A
LAUREL           N/A     36  19  51 SW20      30.11F WCI  25
ROUNDUP          N/A     37  19  48 SW15      29.98F WCI  28
$$

REGIONAL REPORTS...DAKOTAS

CITY           SKY/WX    TMP DP  RH WIND       PRES   REMARKS
WILLISTON      FAIR      27  19  72 SW13      29.99F WCI  16
MINOT          FAIR      35  22  58 SW16      29.91F WCI  25
DICKINSON      FAIR      29  20  69 W15       30.00F WCI  18
BEACH          FAIR      30  19  64 SW18      30.05F WCI  18
CROSBY         FAIR      30  21  69 SW20      29.94R WCI  18
TIOGA          FAIR      28  21  74 W15       29.96F WCI  17
WATFORD CITY   FAIR      27  19  74 SW12      29.99F WCI  16
BISMARCK       FAIR      29  23  78 W6        30.05F WCI  23
GRAND FORKS    FAIR      32  25  75 W15       29.88F WCI  22
FARGO          FAIR      31  22  69 SW15      29.98S WCI  20
BUFFALO SD       N/A     28  20  71 SW17      30.03F WCI  16
RAPID CITY     FAIR      32  18  56 SW6       30.16F WCI  26
$$

REGIONAL REPORTS...WYOMING/IDAHO/WASHINGTON

CITY           SKY/WX    TMP DP  RH WIND       PRES   REMARKS
GILLETTE       FAIR      34  22  61 S12       30.13F WCI  25
SHERIDAN       FAIR      26  17  68 CALM      30.12S
BUFFALO WY     FAIR      32  15  49 CALM      30.12F
CODY           FAIR      26  18  71 CALM      30.18F
YELLOWSTONE LA   N/A     26  22  84 CALM      30.34S
IDAHO FALLS    MOCLDY    32  28  85 N5        30.35S
SALMON         FAIR      25  21  85 E3        30.29F
BOISE          FAIR      46  33  60 SE7       30.23S
SPOKANE        CLOUDY    38  34  85 E8        29.98F
$$

REGIONAL REPORTS...ALBERTA

CITY           SKY/WX    TMP DP  RH WIND       PRES   REMARKS
CALGARY        CLOUDY    36  19  51 SW7       29.75F WCI  30
CARDSTON         N/A     43  25  49 MISG        N/A
EDMONTON       MOCLDY    27  18  69 E2        29.72F
FORT MCMURRAY  CLEAR     32  28  86 SW7       29.66F WCI  26
HIGH LEVEL     CLEAR     18  16  93 VRB2      29.55S
LETHBRIDGE     MOCLDY    41  28  60 W22       29.88S
LLOYDMINSTER   PTCLDY    27  19  74 SW12      29.77F WCI  16
MEDICINE HAT   MOCLDY    34  23  64 SW15      29.86S WCI  24
MILK RIVER       N/A     37  27  65 S9          N/A  WCI  31
ONEFOUR          N/A     30  21  69 E3          N/A
PEACE RIVER    PTCLDY    21  18  86 W3        29.63F
PINCHER CREEK  CLEAR     39  27  60 W24G31    29.89F WCI  28
WATERTON GATE    N/A     41  23  48 SW21G31     N/A
$$

REGIONAL REPORTS...SASKATCHEWAN

CITY           SKY/WX    TMP DP  RH WIND       PRES   REMARKS
CORONACH         N/A     27  18  69 W6          N/A  WCI  20
CYPRESS HILLS    N/A     39   9  28 SW13        N/A  WCI  32
ESTEVAN        PTCLDY    28  19  69 SW14G21   29.90R WCI  17
MOOSE JAW        N/A     30  19  64 W13         N/A  WCI  20
PRINCE ALBERT  PTCLDY    23  21  93 W2        29.75S
REGINA         PTCLDY    30  21  69 W15       29.86S WCI  19
ROCKGLEN         N/A     25  18  74 W14         N/A  WCI  13
SASKATOON      PTCLDY    30  25  80 SW16      29.83S WCI  19
SWIFT CURRENT  CLEAR     28  19  69 SW8       29.88F WCI  20
VAL MARIE        N/A     12   9  85 SW8         N/A  WCI   1
$$




USA.gov is the U.S. government's official web portal to all federal, state and local government web resources and services.